^^
Datos históricos de la estación: Murcia-Puente Tocinos
Diario Informe para Febrero 26, 2019 Unidades:  Métrico    Inglés   Ambas
Diario Semanal Mensual Anual Configurable
  Máximo: Mínimo: Media:
Temperatura: 20.7 °C 6.1 °C 12.6 °C
Punto de rocio: 5.6 °C -1.5 °C 1.4 °C
Humedad: 76% 24% 51%
Velocidad viento: 10.3km/h 0.0km/h 5.9km/h
Racha viento: 20.9km/h - -
Viento- - SSE
Presión: 1030.1 hPa 1026.7 hPa -
Precipitación: 0.0 mm    
Historical Graphs
 
 
Tabla de datos para Febrero 26, 2019
Hora Temperatura Punto de rocio Presión Viento Velocidad viento Racha viento Humedad Intensidad lluvia(por hora) Nubes
00:00 10.1 °C 5.5 °C 1030.1 hPa SE 4.8 km/h 8.0 km/h 73% 0.0 mm CLR
00:05 10.0 °C 5.6 °C 1029.9 hPa South 5.0 km/h 5.8 km/h 74% 0.0 mm CLR
00:10 10.0 °C 5.4 °C 1029.9 hPa SSE 4.7 km/h 7.4 km/h 73% 0.0 mm CLR
00:15 9.9 °C 5.1 °C 1029.9 hPa South 4.7 km/h 7.4 km/h 72% 0.0 mm CLR
00:20 9.9 °C 5.1 °C 1029.9 hPa SW 5.8 km/h 9.3 km/h 72% 0.0 mm CLR
00:25 9.9 °C 5.1 °C 1029.9 hPa South 5.8 km/h 5.6 km/h 72% 0.0 mm CLR
00:30 9.9 °C 5.1 °C 1029.9 hPa SW 4.7 km/h 7.4 km/h 72% 0.0 mm CLR
00:35 10.0 °C 5.2 °C 1029.9 hPa WSW 4.7 km/h 7.4 km/h 72% 0.0 mm CLR
00:40 9.9 °C 5.1 °C 1029.9 hPa SW 5.8 km/h 9.3 km/h 72% 0.0 mm CLR
00:45 9.9 °C 5.1 °C 1029.9 hPa SW 5.8 km/h 7.4 km/h 72% 0.0 mm CLR
00:50 9.9 °C 5.1 °C 1030.0 hPa SW 4.7 km/h 7.4 km/h 72% 0.0 mm CLR
00:55 9.9 °C 5.1 °C 1030.0 hPa South 4.7 km/h 9.3 km/h 72% 0.0 mm CLR
01:00 9.8 °C 5.0 °C 1030.0 hPa SSW 4.8 km/h 8.0 km/h 72% 0.0 mm CLR
01:05 9.8 °C 5.0 °C 1030.0 hPa SW 5.0 km/h 7.4 km/h 72% 0.0 mm CLR
01:10 9.7 °C 4.9 °C 1030.0 hPa WSW 5.0 km/h 9.3 km/h 72% 0.0 mm CLR
01:15 9.7 °C 4.9 °C 1030.0 hPa WSW 5.0 km/h 7.4 km/h 72% 0.0 mm CLR
01:20 9.6 °C 4.8 °C 1029.7 hPa WSW 5.0 km/h 7.4 km/h 72% 0.0 mm CLR
01:25 9.5 °C 4.9 °C 1029.7 hPa WSW 5.0 km/h 3.7 km/h 73% 0.0 mm CLR
01:30 9.4 °C 4.8 °C 1029.7 hPa WSW 3.9 km/h 3.7 km/h 73% 0.0 mm CLR
01:35 9.4 °C 4.8 °C 1029.9 hPa SE 3.9 km/h 7.4 km/h 73% 0.0 mm CLR
01:40 9.4 °C 4.6 °C 1029.9 hPa SE 2.9 km/h 3.7 km/h 72% 0.0 mm CLR
01:45 9.2 °C 4.6 °C 1029.9 hPa SE 2.9 km/h 5.0 km/h 73% 0.0 mm CLR
01:50 9.1 °C 4.5 °C 1029.8 hPa SSE 2.9 km/h 7.4 km/h 73% 0.0 mm CLR
01:55 9.0 °C 4.4 °C 1029.8 hPa SSE 2.9 km/h 1.9 km/h 73% 0.0 mm CLR
02:00 8.9 °C 4.5 °C 1029.8 hPa SSE 3.2 km/h 8.0 km/h 74% 0.0 mm CLR
02:05 8.9 °C 4.5 °C 1029.7 hPa SSW 3.2 km/h 7.4 km/h 74% 0.0 mm CLR
02:10 9.0 °C 4.6 °C 1029.7 hPa SSW 4.7 km/h 5.6 km/h 74% 0.0 mm CLR
02:15 9.1 °C 4.7 °C 1029.7 hPa SW 4.7 km/h 7.4 km/h 74% 0.0 mm CLR
02:20 9.1 °C 4.5 °C 1029.5 hPa SW 3.9 km/h 5.6 km/h 73% 0.0 mm CLR
02:25 9.0 °C 4.4 °C 1029.5 hPa SW 3.9 km/h 5.6 km/h 73% 0.0 mm CLR
02:30 9.0 °C 4.4 °C 1029.5 hPa SW 3.2 km/h 7.4 km/h 73% 0.0 mm CLR
02:35 8.9 °C 4.3 °C 1029.4 hPa SW 3.2 km/h 5.6 km/h 73% 0.0 mm CLR
02:40 8.9 °C 4.3 °C 1029.4 hPa SW 3.9 km/h 3.9 km/h 73% 0.0 mm CLR
02:45 8.8 °C 4.2 °C 1029.4 hPa South 3.9 km/h 7.4 km/h 73% 0.0 mm CLR
02:50 8.7 °C 4.3 °C 1029.3 hPa South 4.7 km/h 8.4 km/h 74% 0.0 mm CLR
02:55 8.6 °C 4.1 °C 1029.3 hPa SSW 4.7 km/h 9.3 km/h 73% 0.0 mm CLR
03:00 8.6 °C 4.0 °C 1029.3 hPa SSW 4.8 km/h 9.7 km/h 73% 0.0 mm CLR
03:05 8.4 °C 3.8 °C 1029.3 hPa South 5.8 km/h 9.3 km/h 73% 0.0 mm CLR
03:10 8.4 °C 3.8 °C 1029.3 hPa SW 5.8 km/h 9.3 km/h 73% 0.0 mm CLR
03:15 8.5 °C 3.7 °C 1029.3 hPa SW 5.8 km/h 9.3 km/h 72% 0.0 mm CLR
03:20 8.4 °C 3.7 °C 1029.1 hPa SW 6.4 km/h 9.3 km/h 72% 0.0 mm CLR
03:25 8.4 °C 3.4 °C 1029.1 hPa SW 6.4 km/h 13.0 km/h 71% 0.0 mm CLR
03:30 8.4 °C 3.4 °C 1029.1 hPa SW 6.4 km/h 7.4 km/h 71% 0.0 mm CLR
03:35 8.3 °C 3.3 °C 1029.0 hPa WSW 6.4 km/h 9.3 km/h 71% 0.0 mm CLR
03:40 8.3 °C 3.2 °C 1029.0 hPa WSW 6.4 km/h 9.3 km/h 70% 0.0 mm CLR
03:45 8.3 °C 3.2 °C 1029.0 hPa WSW 6.4 km/h 13.0 km/h 70% 0.0 mm CLR
03:50 8.2 °C 3.1 °C 1028.8 hPa SW 7.6 km/h 7.4 km/h 70% 0.0 mm CLR
03:55 8.1 °C 2.9 °C 1028.8 hPa SW 7.6 km/h 9.3 km/h 70% 0.0 mm CLR
04:00 8.1 °C 2.9 °C 1028.8 hPa SW 8.0 km/h 11.3 km/h 70% 0.0 mm CLR
04:05 8.0 °C 2.7 °C 1028.7 hPa SSW 6.4 km/h 11.1 km/h 69% 0.0 mm CLR
04:10 8.0 °C 2.7 °C 1028.7 hPa SSW 6.9 km/h 11.1 km/h 69% 0.0 mm CLR
04:15 8.0 °C 2.8 °C 1028.7 hPa South 6.9 km/h 7.4 km/h 70% 0.0 mm CLR
04:20 7.9 °C 2.8 °C 1028.6 hPa South 6.9 km/h 7.4 km/h 70% 0.0 mm CLR
04:25 7.8 °C 2.7 °C 1028.6 hPa South 6.9 km/h 9.3 km/h 70% 0.0 mm CLR
04:30 7.6 °C 2.7 °C 1028.6 hPa South 5.8 km/h 5.6 km/h 71% 0.0 mm CLR
04:35 7.4 °C 2.7 °C 1028.6 hPa South 5.8 km/h 7.4 km/h 72% 0.0 mm CLR
04:40 7.2 °C 2.7 °C 1028.6 hPa South 3.9 km/h 9.3 km/h 73% 0.0 mm CLR
04:45 7.0 °C 2.7 °C 1028.6 hPa South 3.9 km/h 5.6 km/h 74% 0.0 mm CLR
04:50 6.9 °C 2.6 °C 1028.4 hPa South 4.7 km/h 4.7 km/h 74% 0.0 mm CLR
04:55 6.8 °C 2.7 °C 1028.4 hPa South 4.7 km/h 3.7 km/h 75% 0.0 mm CLR
05:00 6.8 °C 2.7 °C 1028.4 hPa South 3.2 km/h 3.2 km/h 75% 0.0 mm CLR
05:05 6.9 °C 2.6 °C 1028.3 hPa SSW 2.9 km/h 5.8 km/h 74% 0.0 mm CLR
05:10 7.0 °C 2.7 °C 1028.3 hPa SSW 2.9 km/h 7.4 km/h 74% 0.0 mm CLR
05:15 7.1 °C 2.6 °C 1028.3 hPa SSE 2.9 km/h 5.8 km/h 73% 0.0 mm CLR
05:20 6.9 °C 2.6 °C 1028.4 hPa SSE 4.7 km/h 5.6 km/h 74% 0.0 mm CLR
05:25 6.8 °C 2.5 °C 1028.4 hPa SSE 4.7 km/h 5.8 km/h 74% 0.0 mm CLR
05:30 6.6 °C 2.3 °C 1028.4 hPa SSE 4.7 km/h 7.4 km/h 74% 0.0 mm CLR
05:35 6.5 °C 2.4 °C 1028.5 hPa SSE 4.7 km/h 7.4 km/h 75% 0.0 mm CLR
05:40 6.4 °C 2.3 °C 1028.5 hPa South 4.7 km/h 7.4 km/h 75% 0.0 mm CLR
05:45 6.4 °C 2.3 °C 1028.5 hPa South 4.7 km/h 4.7 km/h 75% 0.0 mm CLR
05:50 6.4 °C 2.3 °C 1028.6 hPa South 3.9 km/h 5.8 km/h 75% 0.0 mm CLR
05:55 6.3 °C 2.2 °C 1028.6 hPa South 3.9 km/h 5.6 km/h 75% 0.0 mm CLR
06:00 6.3 °C 2.2 °C 1028.6 hPa South 3.2 km/h 8.0 km/h 75% 0.0 mm CLR
06:05 6.2 °C 2.1 °C 1028.7 hPa SSE 4.7 km/h 9.3 km/h 75% 0.0 mm CLR
06:10 6.2 °C 2.1 °C 1028.7 hPa SSE 5.0 km/h 7.4 km/h 75% 0.0 mm CLR
06:15 6.1 °C 2.2 °C 1028.7 hPa South 5.0 km/h 7.4 km/h 76% 0.0 mm CLR
06:20 6.1 °C 2.2 °C 1028.7 hPa South 5.0 km/h 7.4 km/h 76% 0.0 mm CLR
06:25 6.1 °C 2.2 °C 1028.7 hPa South 5.0 km/h 7.4 km/h 76% 0.0 mm CLR
06:30 6.1 °C 2.2 °C 1028.7 hPa South 5.0 km/h 7.4 km/h 76% 0.0 mm CLR
06:35 6.2 °C 2.1 °C 1028.7 hPa SSW 5.0 km/h 7.4 km/h 75% 0.0 mm CLR
06:40 6.3 °C 2.2 °C 1028.7 hPa SSW 4.7 km/h 5.6 km/h 75% 0.0 mm CLR
06:45 6.3 °C 2.2 °C 1028.7 hPa SSE 4.7 km/h 7.4 km/h 75% 0.0 mm CLR
06:50 6.3 °C 2.0 °C 1028.7 hPa SSE 4.7 km/h 5.6 km/h 74% 0.0 mm CLR
06:55 6.2 °C 1.9 °C 1028.7 hPa South 4.7 km/h 7.4 km/h 74% 0.0 mm CLR
07:00 6.2 °C 1.9 °C 1028.7 hPa South 3.2 km/h 11.3 km/h 74% 0.0 mm CLR
07:05 6.1 °C 2.0 °C 1028.8 hPa SSW 4.7 km/h 9.3 km/h 75% 0.0 mm CLR
07:10 6.1 °C 2.0 °C 1028.8 hPa SSW 5.8 km/h 7.4 km/h 75% 0.0 mm CLR
07:15 6.2 °C 1.9 °C 1028.8 hPa SSW 5.8 km/h 9.3 km/h 74% 0.0 mm CLR
07:20 6.2 °C 1.9 °C 1028.8 hPa SSW 5.0 km/h 7.4 km/h 74% 0.0 mm CLR
07:25 6.2 °C 1.9 °C 1028.8 hPa SSW 5.0 km/h 7.4 km/h 74% 0.0 mm CLR
07:30 6.2 °C 1.9 °C 1028.8 hPa SSW 4.7 km/h 3.7 km/h 74% 0.0 mm CLR
07:35 6.2 °C 1.7 °C 1029.1 hPa SSW 4.7 km/h 7.4 km/h 73% 0.0 mm CLR
07:40 6.2 °C 1.9 °C 1029.1 hPa South 3.9 km/h 7.4 km/h 74% 0.0 mm CLR
07:45 6.2 °C 1.9 °C 1029.1 hPa SSW 3.9 km/h 7.4 km/h 74% 0.0 mm CLR
07:50 6.2 °C 1.9 °C 1029.2 hPa SSW 5.0 km/h 5.6 km/h 74% 0.0 mm CLR
07:55 6.2 °C 1.7 °C 1029.2 hPa SSW 5.0 km/h 7.6 km/h 73% 0.0 mm CLR
08:00 6.1 °C 1.6 °C 1029.2 hPa South 3.2 km/h 8.0 km/h 73% 0.0 mm CLR
08:05 6.1 °C 1.6 °C 1029.2 hPa SSE 4.7 km/h 9.3 km/h 73% 0.0 mm CLR
08:10 6.1 °C 1.6 °C 1029.2 hPa SSE 5.8 km/h 9.3 km/h 73% 0.0 mm CLR
08:15 6.2 °C 1.7 °C 1029.2 hPa South 5.8 km/h 7.6 km/h 73% 0.0 mm CLR
08:20 6.2 °C 1.7 °C 1029.4 hPa South 6.4 km/h 9.3 km/h 73% 0.0 mm CLR
08:25 6.3 °C 1.8 °C 1029.4 hPa SSW 6.4 km/h 7.4 km/h 73% 0.0 mm CLR
08:30 6.4 °C 1.9 °C 1029.4 hPa South 5.8 km/h 9.3 km/h 73% 0.0 mm CLR
08:35 6.5 °C 2.0 °C 1029.6 hPa South 5.8 km/h 7.4 km/h 73% 0.0 mm CLR
08:40 6.7 °C 2.0 °C 1029.6 hPa South 6.4 km/h 11.1 km/h 72% 0.0 mm CLR
08:45 6.9 °C 2.0 °C 1029.6 hPa South 6.4 km/h 9.3 km/h 71% 0.0 mm CLR
08:50 7.1 °C 2.2 °C 1029.8 hPa SSW 6.4 km/h 9.3 km/h 71% 0.0 mm CLR
08:55 7.4 °C 2.3 °C 1029.8 hPa South 6.4 km/h 8.4 km/h 70% 0.0 mm CLR
09:00 7.6 °C 2.2 °C 1029.8 hPa South 8.0 km/h 11.3 km/h 69% 0.0 mm CLR
09:05 7.7 °C 2.2 °C 1030.0 hPa SSW 6.9 km/h 11.1 km/h 68% 0.0 mm CLR
09:10 7.9 °C 2.2 °C 1030.0 hPa SSW 6.9 km/h 11.1 km/h 67% 0.0 mm CLR
09:15 8.1 °C 2.1 °C 1030.0 hPa SSW 6.9 km/h 9.3 km/h 66% 0.0 mm CLR
09:20 8.3 °C 2.1 °C 1030.0 hPa SSW 6.4 km/h 11.1 km/h 65% 0.0 mm CLR
09:25 8.5 °C 2.1 °C 1030.0 hPa SW 6.4 km/h 11.1 km/h 64% 0.0 mm CLR
09:30 8.7 °C 2.1 °C 1030.0 hPa SW 7.6 km/h 11.1 km/h 63% 0.0 mm CLR
09:35 8.9 °C 2.0 °C 1030.0 hPa SSW 7.6 km/h 11.1 km/h 62% 0.0 mm CLR
09:40 9.2 °C 2.3 °C 1030.0 hPa SW 7.6 km/h 9.3 km/h 62% 0.0 mm CLR
09:45 9.3 °C 2.2 °C 1030.0 hPa SW 7.6 km/h 12.2 km/h 61% 0.0 mm CLR
09:50 9.4 °C 2.0 °C 1030.0 hPa SW 6.9 km/h 9.5 km/h 60% 0.0 mm CLR
09:55 9.6 °C 2.2 °C 1030.0 hPa SSW 6.9 km/h 13.0 km/h 60% 0.0 mm CLR
10:00 9.7 °C 2.1 °C 1030.0 hPa SW 8.0 km/h 12.9 km/h 59% 0.0 mm CLR
10:05 9.8 °C 2.2 °C 1030.0 hPa WSW 6.4 km/h 11.1 km/h 59% 0.0 mm CLR
10:10 10.0 °C 2.1 °C 1030.0 hPa SSW 6.9 km/h 7.4 km/h 58% 0.0 mm CLR
10:15 10.3 °C 2.2 °C 1030.0 hPa SW 6.9 km/h 10.3 km/h 57% 0.0 mm CLR
10:20 10.4 °C 2.2 °C 1030.1 hPa SSW 6.4 km/h 7.4 km/h 57% 0.0 mm CLR
10:25 10.6 °C 2.4 °C 1030.1 hPa SW 6.4 km/h 9.3 km/h 57% 0.0 mm CLR
10:30 10.8 °C 2.4 °C 1030.1 hPa South 6.4 km/h 13.0 km/h 56% 0.0 mm CLR
10:35 11.1 °C 2.4 °C 1030.0 hPa SSE 6.4 km/h 13.0 km/h 55% 0.0 mm CLR
10:40 11.2 °C 2.2 °C 1030.0 hPa SSE 8.4 km/h 11.1 km/h 54% 0.0 mm CLR
10:45 11.6 °C 2.3 °C 1030.0 hPa South 8.4 km/h 13.0 km/h 53% 0.0 mm CLR
10:50 11.7 °C 2.2 °C 1029.9 hPa SW 8.7 km/h 13.0 km/h 52% 0.0 mm CLR
10:55 12.0 °C 2.2 °C 1029.9 hPa SW 8.7 km/h 7.4 km/h 51% 0.0 mm CLR
11:00 12.2 °C 2.1 °C 1029.9 hPa SW 8.0 km/h 14.5 km/h 50% 0.0 mm CLR
11:05 12.7 °C 2.2 °C 1029.9 hPa SSW 7.6 km/h 13.0 km/h 49% 0.0 mm CLR
11:10 12.7 °C 2.2 °C 1029.9 hPa SSW 8.4 km/h 9.3 km/h 49% 0.0 mm CLR
11:15 12.8 °C 2.3 °C 1029.9 hPa SW 8.4 km/h 10.3 km/h 49% 0.0 mm CLR
11:20 13.2 °C 2.1 °C 1029.8 hPa South 6.9 km/h 14.0 km/h 47% 0.0 mm CLR
11:25 13.5 °C 2.4 °C 1029.8 hPa South 6.9 km/h 11.1 km/h 47% 0.0 mm CLR
11:30 13.7 °C 1.9 °C 1029.8 hPa West 8.4 km/h 7.4 km/h 45% 0.0 mm CLR
11:35 13.8 °C 2.1 °C 1029.6 hPa SSW 8.4 km/h 9.3 km/h 45% 0.0 mm CLR
11:40 13.9 °C 2.2 °C 1029.6 hPa South 6.9 km/h 11.9 km/h 45% 0.0 mm CLR
11:45 14.1 °C 2.0 °C 1029.6 hPa SW 6.9 km/h 12.2 km/h 44% 0.0 mm CLR
11:50 14.2 °C 2.1 °C 1029.5 hPa SSW 8.7 km/h 13.0 km/h 44% 0.0 mm CLR
11:55 14.5 °C 2.1 °C 1029.5 hPa SSW 8.7 km/h 11.1 km/h 43% 0.0 mm CLR
12:00 14.7 °C 1.9 °C 1029.5 hPa SW 8.0 km/h 14.5 km/h 42% 0.0 mm CLR
12:05 15.1 °C 2.3 °C 1029.3 hPa SSW 7.6 km/h 11.1 km/h 42% 0.0 mm CLR
12:10 15.3 °C 2.1 °C 1029.3 hPa SSE 7.6 km/h 11.9 km/h 41% 0.0 mm CLR
12:15 15.4 °C 2.2 °C 1029.3 hPa SW 7.6 km/h 13.0 km/h 41% 0.0 mm CLR
12:20 15.6 °C 2.4 °C 1029.3 hPa SSE 6.9 km/h 7.4 km/h 41% 0.0 mm CLR
12:25 16.0 °C 2.1 °C 1029.3 hPa WSW 6.9 km/h 9.5 km/h 39% 0.0 mm CLR
12:30 16.1 °C 2.1 °C 1029.3 hPa WSW 5.8 km/h 9.3 km/h 39% 0.0 mm CLR
12:35 16.4 °C 2.1 °C 1029.0 hPa South 5.8 km/h 9.3 km/h 38% 0.0 mm CLR
12:40 16.7 °C 1.9 °C 1029.0 hPa West 5.0 km/h 7.4 km/h 37% 0.0 mm CLR
12:45 16.9 °C 1.7 °C 1029.0 hPa West 5.0 km/h 5.6 km/h 36% 0.0 mm CLR
12:50 17.2 °C 2.0 °C 1028.8 hPa SW 4.7 km/h 11.1 km/h 36% 0.0 mm CLR
12:55 17.4 °C 1.3 °C 1028.8 hPa SSW 4.7 km/h 11.1 km/h 34% 0.0 mm CLR
13:00 17.6 °C 1.1 °C 1028.8 hPa South 8.0 km/h 9.7 km/h 33% 0.0 mm CLR
13:05 17.7 °C 0.8 °C 1028.6 hPa SW 6.4 km/h 9.3 km/h 32% 0.0 mm CLR
13:10 17.9 °C 0.9 °C 1028.6 hPa SW 3.9 km/h 7.4 km/h 32% 0.0 mm CLR
13:15 18.2 °C 0.8 °C 1028.6 hPa ESE 3.9 km/h 7.6 km/h 31% 0.0 mm CLR
13:20 18.2 °C 0.3 °C 1028.4 hPa SE 5.8 km/h 9.3 km/h 30% 0.0 mm CLR
13:25 18.3 °C -0.1 °C 1028.4 hPa NE 5.8 km/h 5.6 km/h 29% 0.0 mm CLR
13:30 18.6 °C 0.2 °C 1028.4 hPa SE 3.9 km/h 5.6 km/h 29% 0.0 mm CLR
13:35 18.8 °C 0.4 °C 1028.2 hPa SE 3.9 km/h 7.4 km/h 29% 0.0 mm CLR
13:40 18.8 °C 0.4 °C 1028.2 hPa SSW 5.8 km/h 9.3 km/h 29% 0.0 mm CLR
13:45 18.9 °C 0.4 °C 1028.2 hPa ESE 5.8 km/h 9.3 km/h 29% 0.0 mm CLR
13:50 19.1 °C 0.6 °C 1028.0 hPa NE 5.0 km/h 8.4 km/h 29% 0.0 mm CLR
13:55 19.1 °C 0.6 °C 1028.0 hPa ENE 5.0 km/h 6.4 km/h 29% 0.0 mm CLR
14:00 19.2 °C 0.3 °C 1028.0 hPa NE 3.2 km/h 9.7 km/h 28% 0.0 mm CLR
14:05 19.5 °C 0.5 °C 1027.9 hPa NNW 4.7 km/h 7.4 km/h 28% 0.0 mm CLR
14:10 19.7 °C 0.7 °C 1027.9 hPa North 4.7 km/h 9.3 km/h 28% 0.0 mm CLR
14:15 19.7 °C 0.2 °C 1027.9 hPa ESE 4.7 km/h 11.1 km/h 27% 0.0 mm CLR
14:20 19.7 °C 0.2 °C 1027.7 hPa North 7.6 km/h 11.1 km/h 27% 0.0 mm CLR
14:25 19.8 °C 0.2 °C 1027.7 hPa NE 7.6 km/h 11.1 km/h 27% 0.0 mm CLR
14:30 20.0 °C 0.4 °C 1027.7 hPa NNE 6.9 km/h 5.6 km/h 27% 0.0 mm CLR
14:35 20.1 °C 0.0 °C 1027.6 hPa NE 6.9 km/h 11.9 km/h 26% 0.0 mm CLR
14:40 20.1 °C 0.0 °C 1027.6 hPa NNE 7.6 km/h 16.7 km/h 26% 0.0 mm CLR
14:45 20.0 °C 0.4 °C 1027.6 hPa NE 7.6 km/h 11.1 km/h 27% 0.0 mm CLR
14:50 20.1 °C 0.0 °C 1027.4 hPa NE 10.3 km/h 20.4 km/h 26% 0.0 mm CLR
14:55 20.0 °C -0.1 °C 1027.4 hPa NE 10.3 km/h 10.3 km/h 26% 0.0 mm CLR
15:00 20.0 °C -0.1 °C 1027.4 hPa NE 9.7 km/h 12.9 km/h 26% 0.0 mm CLR
15:05 20.0 °C -0.1 °C 1027.2 hPa NNW 9.5 km/h 9.3 km/h 26% 0.0 mm CLR
15:10 20.2 °C -0.5 °C 1027.2 hPa ENE 6.4 km/h 18.5 km/h 25% 0.0 mm CLR
15:15 20.2 °C -0.5 °C 1027.2 hPa ENE 6.4 km/h 13.0 km/h 25% 0.0 mm CLR
15:20 20.3 °C -0.4 °C 1027.0 hPa East 9.5 km/h 11.1 km/h 25% 0.0 mm CLR
15:25 20.4 °C -0.3 °C 1027.0 hPa ENE 9.7 km/h 20.9 km/h 25% 0.0 mm CLR
15:50 20.6 °C -0.1 °C 1026.7 hPa East 9.5 km/h 11.1 km/h 25% 0.0 mm CLR
15:55 20.6 °C -0.1 °C 1026.7 hPa ENE 9.5 km/h 14.8 km/h 25% 0.0 mm CLR
16:00 20.7 °C -0.7 °C 1026.7 hPa East 9.7 km/h 12.9 km/h 24% 0.0 mm CLR
16:05 20.7 °C -0.6 °C 1026.7 hPa NNE 8.7 km/h 16.7 km/h 24% 0.0 mm CLR
16:10 20.7 °C -0.6 °C 1026.7 hPa North 8.7 km/h 13.0 km/h 24% 0.0 mm CLR
16:15 20.7 °C -0.6 °C 1026.7 hPa NE 8.7 km/h 13.0 km/h 24% 0.0 mm CLR
16:20 20.6 °C -0.7 °C 1026.7 hPa ENE 8.4 km/h 16.7 km/h 24% 0.0 mm CLR
16:25 20.5 °C -0.8 °C 1026.7 hPa ESE 8.4 km/h 16.7 km/h 24% 0.0 mm CLR
16:30 20.6 °C -0.1 °C 1026.7 hPa NE 10.0 km/h 13.0 km/h 25% 0.0 mm CLR
16:35 20.6 °C -0.1 °C 1026.8 hPa ENE 10.0 km/h 13.0 km/h 25% 0.0 mm CLR
16:40 20.6 °C -0.1 °C 1026.8 hPa ESE 10.0 km/h 16.7 km/h 25% 0.0 mm CLR
16:45 20.6 °C -0.7 °C 1026.8 hPa ENE 10.0 km/h 7.4 km/h 24% 0.0 mm CLR
16:50 20.6 °C -0.7 °C 1026.8 hPa NNE 8.7 km/h 9.3 km/h 24% 0.0 mm CLR
16:55 20.6 °C -0.7 °C 1026.8 hPa ENE 8.7 km/h 15.6 km/h 24% 0.0 mm CLR
17:00 20.6 °C -0.1 °C 1026.8 hPa NE 9.7 km/h 19.3 km/h 25% 0.0 mm CLR
17:05 20.6 °C -0.1 °C 1026.8 hPa North 8.7 km/h 11.1 km/h 25% 0.0 mm CLR
17:10 20.4 °C -0.3 °C 1026.8 hPa NNE 10.3 km/h 14.8 km/h 25% 0.0 mm CLR
17:15 20.3 °C -0.4 °C 1026.8 hPa NE 10.3 km/h 15.6 km/h 25% 0.0 mm CLR
17:20 20.3 °C -0.4 °C 1026.8 hPa East 10.3 km/h 13.0 km/h 25% 0.0 mm CLR
17:25 20.4 °C -0.3 °C 1026.8 hPa ENE 10.3 km/h 10.0 km/h 25% 0.0 mm CLR
17:30 20.3 °C -0.4 °C 1026.8 hPa NE 8.4 km/h 14.8 km/h 25% 0.0 mm CLR
17:35 20.2 °C -0.5 °C 1026.9 hPa ENE 8.4 km/h 16.7 km/h 25% 0.0 mm CLR
17:40 20.0 °C -0.7 °C 1026.9 hPa NE 9.5 km/h 18.5 km/h 25% 0.0 mm CLR
17:45 19.9 °C -0.2 °C 1026.9 hPa NE 9.5 km/h 11.1 km/h 26% 0.0 mm CLR
17:50 19.9 °C -0.2 °C 1027.1 hPa ENE 9.5 km/h 13.0 km/h 26% 0.0 mm CLR
17:55 19.6 °C -1.0 °C 1027.1 hPa East 9.5 km/h 16.7 km/h 25% 0.0 mm CLR
18:00 19.4 °C -0.6 °C 1027.1 hPa East 9.7 km/h 16.1 km/h 26% 0.0 mm CLR
18:05 19.2 °C -0.8 °C 1027.3 hPa East 9.5 km/h 11.1 km/h 26% 0.0 mm CLR
18:10 19.0 °C -0.9 °C 1027.3 hPa East 9.5 km/h 16.7 km/h 26% 0.0 mm CLR
18:15 18.9 °C -0.5 °C 1027.3 hPa NE 9.5 km/h 13.0 km/h 27% 0.0 mm CLR
18:20 18.8 °C -0.6 °C 1027.5 hPa NE 8.4 km/h 7.4 km/h 27% 0.0 mm CLR
18:25 18.7 °C -0.7 °C 1027.5 hPa ENE 8.4 km/h 9.5 km/h 27% 0.0 mm CLR
18:30 18.5 °C -0.9 °C 1027.5 hPa ENE 5.8 km/h 9.3 km/h 27% 0.0 mm CLR
18:35 18.3 °C -1.1 °C 1027.6 hPa NE 5.8 km/h 9.3 km/h 27% 0.0 mm CLR
18:40 18.1 °C -0.7 °C 1027.6 hPa ENE 6.9 km/h 11.1 km/h 28% 0.0 mm CLR
18:45 17.9 °C -0.9 °C 1027.6 hPa East 6.9 km/h 7.4 km/h 28% 0.0 mm CLR
18:50 17.8 °C -1.0 °C 1027.7 hPa East 6.4 km/h 7.4 km/h 28% 0.0 mm CLR
18:55 17.4 °C -1.3 °C 1027.7 hPa East 6.4 km/h 11.9 km/h 28% 0.0 mm CLR
19:00 17.3 °C -0.9 °C 1027.7 hPa ESE 8.0 km/h 14.5 km/h 29% 0.0 mm CLR
19:05 17.1 °C -1.1 °C 1027.8 hPa East 7.6 km/h 13.0 km/h 29% 0.0 mm CLR
19:10 16.9 °C -1.3 °C 1027.8 hPa ESE 9.5 km/h 13.0 km/h 29% 0.0 mm CLR
19:15 16.7 °C -1.4 °C 1027.8 hPa ESE 9.5 km/h 13.0 km/h 29% 0.0 mm CLR
19:20 16.5 °C -1.2 °C 1027.8 hPa ESE 9.5 km/h 11.1 km/h 30% 0.0 mm CLR
19:25 16.4 °C -1.2 °C 1027.8 hPa ESE 9.5 km/h 13.0 km/h 30% 0.0 mm CLR
19:30 16.3 °C -1.3 °C 1027.8 hPa SE 8.4 km/h 7.4 km/h 30% 0.0 mm CLR
19:35 16.2 °C -1.4 °C 1027.9 hPa SW 8.4 km/h 6.9 km/h 30% 0.0 mm CLR
19:40 16.1 °C -1.5 °C 1027.9 hPa SW 3.9 km/h 7.4 km/h 30% 0.0 mm CLR
19:45 16.0 °C -1.2 °C 1027.9 hPa SW 3.9 km/h 3.7 km/h 31% 0.0 mm CLR
19:50 15.9 °C -1.2 °C 1028.0 hPa WSW 2.9 km/h 5.0 km/h 31% 0.0 mm CLR
19:55 15.8 °C -1.3 °C 1028.0 hPa East 2.9 km/h 6.4 km/h 31% 0.0 mm CLR
20:00 15.7 °C -1.4 °C 1028.0 hPa ENE 3.2 km/h 9.7 km/h 31% 0.0 mm CLR
20:05 15.7 °C -0.9 °C 1028.0 hPa East 3.9 km/h 7.4 km/h 32% 0.0 mm CLR
20:10 15.7 °C -0.9 °C 1028.0 hPa NE 5.0 km/h 7.4 km/h 32% 0.0 mm CLR
20:15 15.4 °C -0.8 °C 1028.0 hPa NE 5.0 km/h 7.4 km/h 33% 0.0 mm CLR
20:20 15.3 °C -0.5 °C 1028.1 hPa NE 4.7 km/h 9.3 km/h 34% 0.0 mm CLR
20:25 15.0 °C -0.8 °C 1028.1 hPa NE 4.7 km/h 7.4 km/h 34% 0.0 mm CLR
20:30 14.8 °C -0.6 °C 1028.1 hPa NE 6.4 km/h 9.3 km/h 35% 0.0 mm CLR
20:35 14.7 °C -0.6 °C 1028.1 hPa ENE 6.4 km/h 9.3 km/h 35% 0.0 mm CLR
20:40 14.4 °C -0.9 °C 1028.1 hPa NNE 6.4 km/h 9.3 km/h 35% 0.0 mm CLR
20:45 14.3 °C -0.6 °C 1028.1 hPa NE 6.4 km/h 5.6 km/h 36% 0.0 mm CLR
20:50 14.3 °C -0.6 °C 1028.1 hPa NE 4.7 km/h 5.8 km/h 36% 0.0 mm CLR
20:55 14.1 °C -0.4 °C 1028.1 hPa NNE 4.7 km/h 3.9 km/h 37% 0.0 mm CLR
21:00 13.9 °C -0.9 °C 1028.1 hPa NNE 3.2 km/h 9.7 km/h 36% 0.0 mm CLR
21:05 13.9 °C -0.9 °C 1028.1 hPa ENE 3.9 km/h 7.4 km/h 36% 0.0 mm CLR
21:10 13.9 °C -0.6 °C 1028.1 hPa ENE 5.8 km/h 7.4 km/h 37% 0.0 mm CLR
21:15 13.8 °C -0.7 °C 1028.1 hPa South 5.8 km/h 7.4 km/h 37% 0.0 mm CLR
21:20 13.7 °C -0.4 °C 1028.1 hPa South 3.9 km/h 4.7 km/h 38% 0.0 mm CLR
21:25 13.6 °C -0.4 °C 1028.1 hPa ESE 3.9 km/h 3.7 km/h 38% 0.0 mm CLR
21:30 13.5 °C -0.2 °C 1028.1 hPa ESE 2.9 km/h 3.7 km/h 39% 0.0 mm CLR
21:35 13.5 °C -0.2 °C 1028.2 hPa ESE 2.9 km/h   39% 0.0 mm CLR
21:40 13.4 °C -0.7 °C 1028.2 hPa Calm     38% 0.0 mm CLR
21:45 13.4 °C -0.3 °C 1028.2 hPa Calm   5.0 km/h 39% 0.0 mm CLR
21:50 13.4 °C 0.1 °C 1028.3 hPa ESE 2.3 km/h 5.6 km/h 40% 0.0 mm CLR
21:55 13.2 °C -0.1 °C 1028.3 hPa ESE 2.3 km/h 3.7 km/h 40% 0.0 mm CLR
22:00 13.1 °C -0.2 °C 1028.3 hPa ESE 3.2 km/h 6.4 km/h 40% 0.0 mm CLR
22:05 12.9 °C -0.4 °C 1028.2 hPa ESE 3.2 km/h 7.4 km/h 40% 0.0 mm CLR
22:10 12.9 °C -0.4 °C 1028.2 hPa ESE 3.9 km/h 7.4 km/h 40% 0.0 mm CLR
22:15 12.8 °C -0.2 °C 1028.2 hPa ESE 3.9 km/h 6.9 km/h 41% 0.0 mm CLR
22:20 12.7 °C -0.2 °C 1028.2 hPa ESE 4.7 km/h 5.6 km/h 41% 0.0 mm CLR
22:25 12.6 °C 0.0 °C 1028.2 hPa ESE 4.7 km/h 7.4 km/h 42% 0.0 mm CLR
22:30 12.4 °C -0.2 °C 1028.2 hPa ESE 3.2 km/h 3.7 km/h 42% 0.0 mm CLR
22:35 12.4 °C -0.2 °C 1028.2 hPa ESE 3.2 km/h 3.7 km/h 42% 0.0 mm CLR
22:40 12.3 °C 0.1 °C 1028.2 hPa ESE 2.9 km/h   43% 0.0 mm CLR
22:45 12.3 °C 0.4 °C 1028.2 hPa ESE 2.9 km/h   44% 0.0 mm CLR
22:50 12.2 °C 0.3 °C 1028.2 hPa Calm   1.9 km/h 44% 0.0 mm CLR
22:55 12.0 °C 0.4 °C 1028.2 hPa Calm     45% 0.0 mm CLR
23:00 11.9 °C 0.3 °C 1028.2 hPa Calm     45% 0.0 mm CLR
23:05 11.7 °C 0.2 °C 1028.2 hPa Calm   5.6 km/h 45% 0.0 mm CLR
23:10 11.6 °C 0.1 °C 1028.2 hPa ESE 2.3 km/h 3.7 km/h 45% 0.0 mm CLR
23:15 11.3 °C 0.1 °C 1028.2 hPa NNW 2.3 km/h 5.6 km/h 46% 0.0 mm CLR
23:20 11.2 °C 0.0 °C 1028.1 hPa NNW 3.2 km/h 1.9 km/h 46% 0.0 mm CLR
23:25 11.1 °C 0.2 °C 1028.1 hPa NNW 3.2 km/h 3.9 km/h 47% 0.0 mm CLR
23:30 11.1 °C 0.5 °C 1028.1 hPa West 2.3 km/h 5.6 km/h 48% 0.0 mm CLR
23:35 11.0 °C 0.7 °C 1028.0 hPa West 2.3 km/h 5.8 km/h 49% 0.0 mm CLR
23:40 11.0 °C 0.4 °C 1028.0 hPa SE 3.9 km/h 7.4 km/h 48% 0.0 mm CLR
23:45 11.0 °C 0.4 °C 1028.0 hPa SE 3.9 km/h 7.4 km/h 48% 0.0 mm CLR
23:50 11.0 °C 0.7 °C 1028.0 hPa SE 5.0 km/h 5.6 km/h 49% 0.0 mm CLR
23:55 11.1 °C 0.8 °C 1028.0 hPa South 5.0 km/h 7.6 km/h 49% 0.0 mm CLR
Murcia-Puente Tocinos, España
Compliments of Weather Underground - 2.75 mb

La estación de MeteoMurcia.com, publica sus datos en los siguientes proyectos:

Weather Underground PWS IMURCIAP2 Meteoclimatic www.awekas.at

W3Counter
Web Analytics